Location: Maiden
(35.5760°N, 81.2120°W)
Time: 17:53:18
(UTC-04:00)

ISS - Visible Passes

Search period start: 07 July 2015 00:00
Search period end: 17 July 2015 00:00
Orbit: 398 x 402 km, 51.6° (Epoch: 07 July)

Date Brightness Start Highest point End Pass type
(mag) Time Alt. Az. Time Alt. Az. Time Alt. Az.
10 Jul -1.8 05:38:05 10° SSW 05:40:55 28° SE 05:43:48 10° ENE visible
11 Jul -0.8 04:45:57 11° SSE 04:47:24 13° SE 04:49:08 10° E visible
12 Jul -3.3 05:27:07 14° SW 05:29:49 80° SE 05:33:04 10° NE visible
13 Jul -2.3 04:35:37 31° SSE 04:36:10 33° SE 04:39:09 10° ENE visible
14 Jul -0.5 03:44:02 12° E 03:44:02 12° E 03:44:38 10° E visible
14 Jul -2.4 05:16:36 17° W 05:18:43 39° NW 05:21:48 10° NE visible
15 Jul -3.5 04:24:55 87° NW 04:24:56 87° NNW 04:28:11 10° NE visible
16 Jul -0.7 03:33:10 18° ENE 03:33:10 18° ENE 03:34:15 10° ENE visible
16 Jul -1.2 05:05:43 13° WNW 05:07:42 20° NNW 05:10:09 10° NNE visible
